Time,TemperatureF,DewpointF,PressureIn,WindDirection,WindDirectionDegrees,WindSpeedMPH,WindSpeedGustMPH,Humidity,HourlyPrecipIn,Conditions,Clouds,dailyrainin,SoftwareType,DateUTC
2013-10-19 07:08:00,66.1,65.8,29.91,NNE,15,0.0,1.0,99,0.00,,---,0.01,VWS V14.00,2013-10-19 11:08:00,
2013-10-19 07:13:00,66.3,66.0,29.92,NNE,15,0.0,2.0,99,0.00,,---,0.00,VWS V14.00,2013-10-19 11:13:00,
2013-10-19 07:18:00,66.4,66.1,29.92,WNW,301,1.0,4.0,99,0.00,,---,0.00,VWS V14.00,2013-10-19 11:18:00,
2013-10-19 07:23:00,66.5,66.2,29.92,WNW,301,0.0,4.0,99,0.00,,---,0.00,VWS V14.00,2013-10-19 11:23:00,
2013-10-19 07:28:00,66.7,66.4,29.92,WNW,301,1.0,1.0,99,0.00,,---,0.00,VWS V14.00,2013-10-19 11:28:00,
2013-10-19 07:33:00,66.8,66.5,29.92,WNW,303,1.0,4.0,99,0.00,,---,0.00,VWS V14.00,2013-10-19 11:33:00,
2013-10-19 07:38:00,66.9,66.6,29.92,WNW,303,0.0,4.0,99,0.00,,---,0.00,VWS V14.00,2013-10-19 11:38:00,
2013-10-19 07:43:00,67.0,66.7,29.92,WNW,303,0.0,4.0,99,0.00,,---,0.00,VWS V14.00,2013-10-19 11:43:00,
2013-10-19 07:48:00,67.1,66.8,29.92,WNW,297,1.0,4.0,99,0.00,,---,0.00,VWS V14.00,2013-10-19 11:48:00,
2013-10-19 07:53:00,67.1,66.8,29.92,WNW,297,2.0,4.0,99,0.00,,---,0.00,VWS V14.00,2013-10-19 11:53:00,
2013-10-19 07:58:00,67.2,66.9,29.92,NW,325,1.0,3.0,99,0.00,,---,0.00,VWS V14.00,2013-10-19 11:58:00,
2013-10-19 08:03:00,67.3,67.0,29.93,NW,325,4.0,4.0,99,0.00,,---,0.00,VWS V14.00,2013-10-19 12:03:00,
2013-10-19 08:08:00,67.3,67.0,29.93,WNW,296,4.0,6.0,99,0.00,,---,0.00,VWS V14.00,2013-10-19 12:08:00,
2013-10-19 08:13:00,67.2,66.9,29.93,WNW,302,3.0,6.0,99,0.00,,---,0.00,VWS V14.00,2013-10-19 12:13:00,
2013-10-19 08:18:00,67.2,66.9,29.93,WNW,302,1.0,6.0,99,0.00,,---,0.00,VWS V14.00,2013-10-19 12:18:00,
2013-10-19 08:23:00,67.3,67.0,29.93,WNW,302,0.0,6.0,99,0.00,,---,0.00,VWS V14.00,2013-10-19 12:23:00,
2013-10-19 08:28:00,67.3,67.0,29.93,WNW,302,2.0,3.0,99,0.00,,---,0.00,VWS V14.00,2013-10-19 12:28:00,
2013-10-19 08:33:00,67.4,67.1,29.93,WNW,302,0.0,3.0,99,0.00,,---,0.00,VWS V14.00,2013-10-19 12:33:00,
2013-10-19 08:38:00,67.5,67.2,29.93,WNW,302,0.0,3.0,99,0.00,,---,0.00,VWS V14.00,2013-10-19 12:38:00,
2013-10-19 08:43:00,67.5,67.2,29.92,WNW,302,0.0,3.0,99,0.00,,---,0.00,VWS V14.00,2013-10-19 12:43:00,
2013-10-19 08:48:00,67.6,67.3,29.93,WNW,302,0.0,3.0,99,0.00,,---,0.00,VWS V14.00,2013-10-19 12:48:00,
2013-10-19 08:53:00,67.7,67.4,29.93,WNW,302,1.0,3.0,99,0.00,,---,0.00,VWS V14.00,2013-10-19 12:53:00,
2013-10-19 08:58:00,67.8,67.5,29.93,WNW,302,0.0,1.0,99,0.00,,---,0.00,VWS V14.00,2013-10-19 12:58:00,
2013-10-19 09:03:00,68.0,67.7,29.93,WNW,302,0.0,1.0,99,0.00,,---,0.00,VWS V14.00,2013-10-19 13:03:00,
2013-10-19 09:08:00,68.0,67.7,29.93,WNW,302,0.0,2.0,99,0.00,,---,0.00,VWS V14.00,2013-10-19 13:08:00,
2013-10-19 09:13:00,68.5,68.2,29.93,WNW,302,0.0,2.0,99,0.00,,---,0.00,VWS V14.00,2013-10-19 13:13:00,
2013-10-19 09:18:00,68.9,68.6,29.93,WNW,302,1.0,2.0,99,0.00,,---,0.00,VWS V14.00,2013-10-19 13:18:00,
2013-10-19 09:23:00,68.7,68.4,29.93,WNW,302,0.0,3.0,99,0.00,,---,0.00,VWS V14.00,2013-10-19 13:23:00,
2013-10-19 09:28:00,69.2,68.9,29.93,WNW,302,3.0,3.0,99,0.00,,---,0.00,VWS V14.00,2013-10-19 13:28:00,
2013-10-19 09:33:00,69.4,69.1,29.93,WNW,282,0.0,4.0,99,0.00,,---,0.00,VWS V14.00,2013-10-19 13:33:00,
2013-10-19 09:38:00,69.7,69.4,29.93,WNW,282,1.0,4.0,99,0.00,,---,0.00,VWS V14.00,2013-10-19 13:38:00,
2013-10-19 09:43:00,70.2,69.9,29.93,NNW,330,1.0,4.0,99,0.00,,---,0.00,VWS V14.00,2013-10-19 13:43:00,
2013-10-19 09:48:00,70.5,70.2,29.93,NW,305,5.0,5.0,99,0.00,,---,0.00,VWS V14.00,2013-10-19 13:48:00,
2013-10-19 09:53:00,70.3,70.0,29.93,NW,313,3.0,5.0,99,0.00,,---,0.00,VWS V14.00,2013-10-19 13:53:00,
2013-10-19 09:58:00,70.5,70.2,29.93,West,270,2.0,5.0,99,0.00,,---,0.00,VWS V14.00,2013-10-19 13:58:00,
2013-10-19 10:03:00,70.6,70.3,29.93,West,270,2.0,5.0,99,0.00,,---,0.00,VWS V14.00,2013-10-19 14:03:00,
2013-10-19 10:08:00,70.5,70.2,29.93,West,270,1.0,5.0,99,0.00,,---,0.00,VWS V14.00,2013-10-19 14:08:00,
2013-10-19 10:13:00,70.9,70.6,29.93,West,270,0.0,5.0,99,0.00,,---,0.00,VWS V14.00,2013-10-19 14:13:00,
2013-10-19 10:18:00,70.9,70.6,29.93,West,270,0.0,5.0,99,0.00,,---,0.00,VWS V14.00,2013-10-19 14:18:00,
2013-10-19 10:23:00,71.3,71.0,29.93,West,270,0.0,5.0,99,0.00,,---,0.00,VWS V14.00,2013-10-19 14:23:00,
2013-10-19 10:28:00,71.9,71.6,29.92,NNW,330,2.0,4.0,99,0.00,,---,0.00,VWS V14.00,2013-10-19 14:28:00,
2013-10-19 10:33:00,72.1,71.5,29.92,WNW,300,3.0,4.0,98,0.00,,---,0.00,VWS V14.00,2013-10-19 14:33:00,
2013-10-19 10:38:00,72.2,71.6,29.93,NW,309,3.0,5.0,98,0.00,,---,0.00,VWS V14.00,2013-10-19 14:38:00,
2013-10-19 10:43:00,72.2,71.3,29.92,NW,306,3.0,6.0,97,0.00,,---,0.00,VWS V14.00,2013-10-19 14:43:00,
2013-10-19 10:48:00,72.0,71.1,29.92,WNW,293,4.0,6.0,97,0.00,,---,0.00,VWS V14.00,2013-10-19 14:48:00,
2013-10-19 10:53:00,71.7,70.8,29.92,West,279,4.0,7.0,97,0.00,,---,0.00,VWS V14.00,2013-10-19 14:53:00,
2013-10-19 10:58:00,71.5,70.3,29.92,NW,307,6.0,6.0,96,0.00,,---,0.00,VWS V14.00,2013-10-19 14:58:00,
2013-10-19 11:03:00,71.2,70.0,29.92,WNW,291,5.0,7.0,96,0.00,,---,0.00,VWS V14.00,2013-10-19 15:03:00,
2013-10-19 11:08:00,71.1,69.9,29.93,WNW,289,4.0,7.0,96,0.00,,---,0.01,VWS V14.00,2013-10-19 15:08:00,
2013-10-19 11:13:00,71.0,69.8,29.92,NW,310,3.0,7.0,96,0.00,,---,0.01,VWS V14.00,2013-10-19 15:13:00,
2013-10-19 11:18:00,70.8,69.6,29.93,WNW,285,5.0,7.0,96,0.00,,---,0.01,VWS V14.00,2013-10-19 15:18:00,
2013-10-19 11:23:00,70.6,69.4,29.93,WNW,287,2.0,7.0,96,0.04,,---,0.02,VWS V14.00,2013-10-19 15:23:00,
2013-10-19 11:28:00,70.6,69.7,29.93,West,275,3.0,3.0,97,0.13,,---,0.03,VWS V14.00,2013-10-19 15:28:00,
2013-10-19 11:33:00,70.5,69.6,29.92,West,264,3.0,5.0,97,0.11,,---,0.04,VWS V14.00,2013-10-19 15:33:00,
2013-10-19 11:38:00,70.5,69.6,29.93,West,272,4.0,5.0,97,0.23,,---,0.05,VWS V14.00,2013-10-19 15:38:00,
2013-10-19 11:43:00,70.4,69.5,29.93,West,266,1.0,5.0,97,1.18,,---,0.11,VWS V14.00,2013-10-19 15:43:00,
2013-10-19 11:48:00,70.3,69.4,29.92,West,266,1.0,5.0,97,0.15,,---,0.12,VWS V14.00,2013-10-19 15:48:00,
2013-10-19 11:53:00,70.4,69.5,29.92,West,266,0.0,5.0,97,0.10,,---,0.13,VWS V14.00,2013-10-19 15:53:00,
2013-10-19 11:58:00,70.3,69.4,29.92,West,266,1.0,2.0,97,0.14,,---,0.14,VWS V14.00,2013-10-19 15:58:00,
2013-10-19 12:03:00,70.4,69.5,29.92,West,266,1.0,2.0,97,0.07,,---,0.14,VWS V14.00,2013-10-19 16:03:00,
2013-10-19 12:08:00,70.2,69.3,29.93,West,266,0.0,2.0,97,0.04,,---,0.14,VWS V14.00,2013-10-19 16:08:00,
2013-10-19 12:13:00,70.3,69.4,29.92,West,266,0.0,2.0,97,0.26,,---,0.16,VWS V14.00,2013-10-19 16:13:00,
2013-10-19 12:18:00,70.4,69.5,29.92,West,266,1.0,3.0,97,0.29,,---,0.19,VWS V14.00,2013-10-19 16:18:00,
2013-10-19 12:23:00,70.4,69.8,29.92,West,266,2.0,3.0,98,0.12,,---,0.19,VWS V14.00,2013-10-19 16:23:00,
2013-10-19 12:28:00,70.5,69.9,29.92,West,268,0.0,2.0,98,0.06,,---,0.19,VWS V14.00,2013-10-19 16:28:00,
2013-10-19 12:33:00,70.5,69.9,29.92,WSW,257,2.0,5.0,98,0.04,,---,0.19,VWS V14.00,2013-10-19 16:33:00,
2013-10-19 12:38:00,70.3,69.4,29.91,WSW,237,2.0,5.0,97,0.00,,---,0.19,VWS V14.00,2013-10-19 16:38:00,
2013-10-19 12:43:00,70.3,69.4,29.91,WSW,247,2.0,5.0,97,0.00,,---,0.19,VWS V14.00,2013-10-19 16:43:00,
2013-10-19 12:48:00,70.4,69.8,29.91,WSW,247,3.0,5.0,98,0.00,,---,0.19,VWS V14.00,2013-10-19 16:48:00,
2013-10-19 12:53:00,70.5,69.9,29.91,WSW,250,4.0,5.0,98,0.00,,---,0.19,VWS V14.00,2013-10-19 16:53:00,
2013-10-19 12:58:00,70.4,69.5,29.91,WSW,253,2.0,3.0,97,0.00,,---,0.20,VWS V14.00,2013-10-19 16:58:00,
2013-10-19 13:03:00,70.5,69.9,29.91,SW,214,2.0,4.0,98,3.15,,---,0.28,VWS V14.00,2013-10-19 17:03:00,
2013-10-19 13:08:00,70.3,69.4,29.91,WSW,247,5.0,7.0,97,0.14,,---,0.29,VWS V14.00,2013-10-19 17:08:00,
2013-10-19 13:13:00,70.4,69.8,29.91,SW,231,6.0,7.0,98,0.12,,---,0.30,VWS V14.00,2013-10-19 17:13:00,
2013-10-19 13:18:00,70.4,69.8,29.90,WSW,249,4.0,7.0,98,0.07,,---,0.30,VWS V14.00,2013-10-19 17:18:00,
2013-10-19 13:23:00,70.6,70.0,29.90,WSW,240,1.0,7.0,98,0.04,,---,0.30,VWS V14.00,2013-10-19 17:23:00,
2013-10-19 13:28:00,70.8,70.2,29.89,West,278,2.0,3.0,98,0.00,,---,0.30,VWS V14.00,2013-10-19 17:28:00,
2013-10-19 13:33:00,70.8,69.9,29.89,West,281,2.0,4.0,97,0.00,,---,0.30,VWS V14.00,2013-10-19 17:33:00,
2013-10-19 13:38:00,70.7,70.1,29.88,WNW,282,3.0,5.0,98,0.00,,---,0.30,VWS V14.00,2013-10-19 17:38:00,
2013-10-19 13:43:00,70.7,70.1,29.88,WNW,282,3.0,5.0,98,0.00,,---,0.30,VWS V14.00,2013-10-19 17:43:00,
2013-10-19 13:48:00,70.7,70.1,29.88,WNW,285,2.0,5.0,98,0.00,,---,0.30,VWS V14.00,2013-10-19 17:48:00,
2013-10-19 13:53:00,70.9,70.0,29.87,WNW,285,2.0,5.0,97,0.00,,---,0.30,VWS V14.00,2013-10-19 17:53:00,
2013-10-19 13:58:00,71.0,70.1,29.87,WNW,285,0.0,0.0,97,0.00,,---,0.30,VWS V14.00,2013-10-19 17:58:00,
2013-10-19 14:03:00,71.4,70.8,29.87,WNW,285,0.0,2.0,98,0.00,,---,0.30,VWS V14.00,2013-10-19 18:03:00,
2013-10-19 14:08:00,71.4,70.5,29.87,WNW,285,0.0,3.0,97,0.00,,---,0.30,VWS V14.00,2013-10-19 18:08:00,
2013-10-19 14:13:00,71.3,70.4,29.87,WNW,285,1.0,3.0,97,0.00,,---,0.30,VWS V14.00,2013-10-19 18:13:00,
2013-10-19 14:18:00,71.4,70.5,29.87,West,279,0.0,3.0,97,0.00,,---,0.30,VWS V14.00,2013-10-19 18:18:00,
2013-10-19 14:23:00,71.4,70.5,29.87,West,278,0.0,3.0,97,0.00,,---,0.30,VWS V14.00,2013-10-19 18:23:00,
2013-10-19 14:28:00,71.3,70.4,29.86,West,273,2.0,3.0,97,0.00,,---,0.30,VWS V14.00,2013-10-19 18:28:00,
2013-10-19 14:33:00,71.3,70.4,29.86,West,273,1.0,4.0,97,0.00,,---,0.30,VWS V14.00,2013-10-19 18:33:00,
2013-10-19 14:38:00,71.5,70.6,29.87,West,273,3.0,4.0,97,0.00,,---,0.30,VWS V14.00,2013-10-19 18:38:00,
2013-10-19 14:43:00,71.6,70.7,29.87,West,273,0.0,4.0,97,0.00,,---,0.30,VWS V14.00,2013-10-19 18:43:00,
2013-10-19 14:48:00,71.8,70.9,29.87,West,272,0.0,4.0,97,0.00,,---,0.30,VWS V14.00,2013-10-19 18:48:00,
2013-10-19 14:53:00,71.8,70.9,29.87,West,272,3.0,4.0,97,0.00,,---,0.30,VWS V14.00,2013-10-19 18:53:00,
2013-10-19 14:58:00,72.3,71.4,29.87,West,272,3.0,3.0,97,0.00,,---,0.30,VWS V14.00,2013-10-19 18:58:00,
2013-10-19 15:03:00,72.4,71.5,29.87,West,270,5.0,5.0,97,0.00,,---,0.30,VWS V14.00,2013-10-19 19:03:00,
2013-10-19 15:08:00,72.4,71.2,29.87,WSW,239,2.0,5.0,96,0.00,,---,0.30,VWS V14.00,2013-10-19 19:08:00,
2013-10-19 15:13:00,72.5,71.3,29.86,WSW,245,3.0,5.0,96,0.00,,---,0.30,VWS V14.00,2013-10-19 19:13:00,
2013-10-19 15:18:00,72.4,70.9,29.86,WSW,243,5.0,7.0,95,0.00,,---,0.30,VWS V14.00,2013-10-19 19:18:00,
2013-10-19 15:23:00,72.6,71.1,29.86,West,266,4.0,7.0,95,0.00,,---,0.30,VWS V14.00,2013-10-19 19:23:00,
2013-10-19 15:28:00,72.7,71.2,29.86,West,263,1.0,4.0,95,0.00,,---,0.30,VWS V14.00,2013-10-19 19:28:00,
2013-10-19 15:33:00,73.0,71.5,29.86,WSW,254,2.0,5.0,95,0.00,,---,0.30,VWS V14.00,2013-10-19 19:33:00,
2013-10-19 15:38:00,73.4,71.9,29.86,WSW,254,1.0,5.0,95,0.00,,---,0.30,VWS V14.00,2013-10-19 19:38:00,
2013-10-19 15:43:00,73.6,71.8,29.86,SW,222,5.0,5.0,94,0.00,,---,0.30,VWS V14.00,2013-10-19 19:43:00,
2013-10-19 15:48:00,73.4,70.9,29.86,WSW,239,5.0,7.0,92,0.00,,---,0.30,VWS V14.00,2013-10-19 19:48:00,
2013-10-19 15:53:00,73.4,71.3,29.86,WSW,254,3.0,8.0,93,0.00,,---,0.30,VWS V14.00,2013-10-19 19:53:00,
2013-10-19 15:58:00,73.5,71.0,29.86,West,264,5.0,5.0,92,0.00,,---,0.30,VWS V14.00,2013-10-19 19:58:00,
2013-10-19 16:03:00,73.4,70.9,29.86,SSW,210,3.0,7.0,92,0.00,,---,0.30,VWS V14.00,2013-10-19 20:03:00,
2013-10-19 16:08:00,73.4,71.3,29.86,WSW,247,1.0,7.0,93,0.00,,---,0.30,VWS V14.00,2013-10-19 20:08:00,
2013-10-19 16:13:00,73.7,71.6,29.86,WSW,252,6.0,7.0,93,0.00,,---,0.30,VWS V14.00,2013-10-19 20:13:00,
2013-10-19 16:18:00,73.8,71.3,29.86,WSW,258,5.0,7.0,92,0.00,,---,0.30,VWS V14.00,2013-10-19 20:18:00,
2013-10-19 16:23:00,73.7,71.2,29.86,West,274,4.0,7.0,92,0.00,,---,0.30,VWS V14.00,2013-10-19 20:23:00,
2013-10-19 16:28:00,73.6,71.1,29.86,WSW,243,4.0,5.0,92,0.00,,---,0.30,VWS V14.00,2013-10-19 20:28:00,
2013-10-19 16:33:00,73.5,71.0,29.86,WSW,249,2.0,7.0,92,0.00,,---,0.30,VWS V14.00,2013-10-19 20:33:00,
2013-10-19 16:38:00,73.7,71.6,29.86,SW,227,4.0,7.0,93,0.00,,---,0.30,VWS V14.00,2013-10-19 20:38:00,
2013-10-19 16:43:00,73.9,71.4,29.86,SW,214,3.0,7.0,92,0.00,,---,0.30,VWS V14.00,2013-10-19 20:43:00,
2013-10-19 16:48:00,73.8,71.3,29.86,SSW,212,3.0,7.0,92,0.00,,---,0.30,VWS V14.00,2013-10-19 20:48:00,
2013-10-19 16:53:00,73.6,71.1,29.86,SW,215,0.0,7.0,92,0.00,,---,0.30,VWS V14.00,2013-10-19 20:53:00,
2013-10-19 16:58:00,73.7,71.2,29.86,SSW,201,3.0,3.0,92,0.00,,---,0.30,VWS V14.00,2013-10-19 20:58:00,
2013-10-19 17:03:00,73.7,71.2,29.85,SSW,204,2.0,5.0,92,0.00,,---,0.30,VWS V14.00,2013-10-19 21:03:00,
2013-10-19 17:08:00,73.5,71.0,29.86,SSW,211,2.0,5.0,92,0.00,,---,0.30,VWS V14.00,2013-10-19 21:08:00,
2013-10-19 17:13:00,73.4,71.3,29.86,SSW,212,2.0,5.0,93,0.00,,---,0.30,VWS V14.00,2013-10-19 21:13:00,
2013-10-19 17:18:00,73.4,71.3,29.86,SSW,212,1.0,5.0,93,0.00,,---,0.30,VWS V14.00,2013-10-19 21:18:00,
2013-10-19 17:23:00,73.5,71.4,29.86,SSW,212,1.0,5.0,93,0.00,,---,0.30,VWS V14.00,2013-10-19 21:23:00,
2013-10-19 17:28:00,73.4,71.3,29.86,SSW,211,2.0,2.0,93,0.00,,---,0.30,VWS V14.00,2013-10-19 21:28:00,
2013-10-19 17:33:00,73.3,71.2,29.86,SSW,212,2.0,3.0,93,0.00,,---,0.30,VWS V14.00,2013-10-19 21:33:00,
2013-10-19 17:38:00,73.2,71.1,29.86,SSW,212,3.0,3.0,93,0.00,,---,0.30,VWS V14.00,2013-10-19 21:38:00,
2013-10-19 17:43:00,73.2,71.1,29.86,SSW,212,0.0,3.0,93,0.00,,---,0.30,VWS V14.00,2013-10-19 21:43:00,
2013-10-19 17:48:00,73.1,71.3,29.86,SSW,212,0.0,3.0,94,0.00,,---,0.30,VWS V14.00,2013-10-19 21:48:00,
2013-10-19 17:53:00,73.0,71.2,29.86,SSW,212,0.0,3.0,94,0.00,,---,0.30,VWS V14.00,2013-10-19 21:53:00,
2013-10-19 17:58:00,73.0,71.2,29.86,SSW,212,1.0,2.0,94,0.00,,---,0.30,VWS V14.00,2013-10-19 21:58:00,
2013-10-19 18:03:00,72.9,71.1,29.87,SSW,212,2.0,3.0,94,0.00,,---,0.30,VWS V14.00,2013-10-19 22:03:00,
2013-10-19 18:08:00,72.7,70.9,29.87,SSW,212,2.0,3.0,94,0.00,,---,0.30,VWS V14.00,2013-10-19 22:08:00,
2013-10-19 18:13:00,72.5,70.7,29.87,SSW,212,1.0,3.0,94,0.00,,---,0.30,VWS V14.00,2013-10-19 22:13:00,
2013-10-19 18:18:00,72.3,70.5,29.86,SSW,212,2.0,3.0,94,0.00,,---,0.30,VWS V14.00,2013-10-19 22:18:00,
2013-10-19 18:23:00,72.1,70.6,29.86,SSW,212,1.0,3.0,95,0.00,,---,0.30,VWS V14.00,2013-10-19 22:23:00,
2013-10-19 18:28:00,72.0,70.5,29.87,SSW,212,1.0,2.0,95,0.00,,---,0.30,VWS V14.00,2013-10-19 22:28:00,
2013-10-19 18:33:00,71.8,70.3,29.87,SSW,212,0.0,2.0,95,0.00,,---,0.30,VWS V14.00,2013-10-19 22:33:00,
2013-10-19 18:38:00,71.7,70.2,29.87,SSW,212,0.0,2.0,95,0.00,,---,0.30,VWS V14.00,2013-10-19 22:38:00,
2013-10-19 18:43:00,71.6,70.1,29.87,SSW,212,0.0,2.0,95,0.00,,---,0.30,VWS V14.00,2013-10-19 22:43:00,
2013-10-19 18:48:00,71.5,70.0,29.87,SSW,212,0.0,2.0,95,0.00,,---,0.30,VWS V14.00,2013-10-19 22:48:00,
2013-10-19 18:53:00,71.4,69.9,29.87,SSW,212,0.0,2.0,95,0.00,,---,0.30,VWS V14.00,2013-10-19 22:53:00,
2013-10-19 18:58:00,71.3,70.1,29.87,SSW,212,0.0,0.0,96,0.00,,---,0.30,VWS V14.00,2013-10-19 22:58:00,
2013-10-19 19:03:00,71.3,70.1,29.87,SSW,212,0.0,0.0,96,0.00,,---,0.30,VWS V14.00,2013-10-19 23:03:00,
2013-10-19 19:08:00,71.2,70.0,29.87,SSW,211,0.0,1.0,96,0.00,,---,0.30,VWS V14.00,2013-10-19 23:08:00,
2013-10-19 19:13:00,71.2,70.0,29.87,SSW,211,0.0,2.0,96,0.00,,---,0.30,VWS V14.00,2013-10-19 23:13:00,
2013-10-19 19:18:00,71.1,69.9,29.87,SSW,212,0.0,2.0,96,0.00,,---,0.30,VWS V14.00,2013-10-19 23:18:00,
2013-10-19 19:23:00,71.0,69.8,29.87,SSW,212,0.0,2.0,96,0.00,,---,0.30,VWS V14.00,2013-10-19 23:23:00,
2013-10-19 19:28:00,71.0,69.8,29.87,SSW,212,0.0,0.0,96,0.00,,---,0.30,VWS V14.00,2013-10-19 23:28:00,
2013-10-19 19:33:00,70.8,69.6,29.87,SSW,211,0.0,0.0,96,0.00,,---,0.30,VWS V14.00,2013-10-19 23:33:00,
2013-10-19 19:37:00,70.8,69.6,29.87,SSW,212,0.0,0.0,96,0.00,,---,0.30,VWS V14.00,2013-10-19 23:37:00,
2013-10-19 19:42:00,70.6,69.4,29.88,SSW,212,0.0,1.0,96,0.00,,---,0.30,VWS V14.00,2013-10-19 23:42:00,
2013-10-19 19:47:00,70.4,69.5,29.88,SSW,211,0.0,1.0,97,0.00,,---,0.30,VWS V14.00,2013-10-19 23:47:00,
2013-10-19 19:52:00,70.3,69.4,29.88,SSW,212,0.0,1.0,97,0.00,,---,0.30,VWS V14.00,2013-10-19 23:52:00,
2013-10-19 19:57:00,70.2,69.3,29.88,SSW,211,0.0,0.0,97,0.00,,---,0.30,VWS V14.00,2013-10-19 23:57:00,
2013-10-19 20:02:00,70.1,69.2,29.88,SSW,212,0.0,0.0,97,0.00,,---,0.30,VWS V14.00,2013-10-20 00:02:00,
2013-10-19 20:07:00,69.9,69.0,29.88,SSW,211,0.0,0.0,97,0.00,,---,0.30,VWS V14.00,2013-10-20 00:07:00,
2013-10-19 20:12:00,69.9,69.0,29.88,SSW,212,0.0,0.0,97,0.00,,---,0.30,VWS V14.00,2013-10-20 00:12:00,
2013-10-19 20:17:00,70.0,69.1,29.88,SSW,212,0.0,0.0,97,0.00,,---,0.30,VWS V14.00,2013-10-20 00:17:00,
2013-10-19 20:22:00,70.0,69.1,29.88,SSW,212,0.0,0.0,97,0.00,,---,0.30,VWS V14.00,2013-10-20 00:22:00,
2013-10-19 20:27:00,70.1,69.2,29.88,SSW,212,0.0,0.0,97,0.00,,---,0.30,VWS V14.00,2013-10-20 00:27:00,
2013-10-19 20:32:00,70.1,69.2,29.88,SSW,211,0.0,0.0,97,0.00,,---,0.30,VWS V14.00,2013-10-20 00:32:00,
2013-10-19 20:37:00,69.9,69.0,29.88,SSW,212,0.0,0.0,97,0.00,,---,0.30,VWS V14.00,2013-10-20 00:37:00,
2013-10-19 20:42:00,69.8,68.9,29.88,SSW,211,0.0,0.0,97,0.00,,---,0.30,VWS V14.00,2013-10-20 00:42:00,
2013-10-19 20:47:00,69.8,68.9,29.87,SSW,212,0.0,0.0,97,0.00,,---,0.30,VWS V14.00,2013-10-20 00:47:00,
2013-10-19 20:52:00,69.8,68.9,29.87,SSW,211,0.0,0.0,97,0.00,,---,0.30,VWS V14.00,2013-10-20 00:52:00,
2013-10-19 20:57:00,69.8,68.9,29.88,SSW,212,3.0,3.0,97,0.00,,---,0.30,VWS V14.00,2013-10-20 00:57:00,
2013-10-19 21:02:00,69.7,68.8,29.89,SSW,212,2.0,4.0,97,0.00,,---,0.30,VWS V14.00,2013-10-20 01:02:00,
2013-10-19 21:07:00,69.8,68.9,29.88,SSW,212,2.0,4.0,97,0.00,,---,0.30,VWS V14.00,2013-10-20 01:07:00,
2013-10-19 21:12:00,69.8,68.9,29.89,SSW,212,1.0,4.0,97,0.00,,---,0.30,VWS V14.00,2013-10-20 01:12:00,
2013-10-19 21:17:00,69.7,68.8,29.89,SSW,212,2.0,4.0,97,0.00,,---,0.30,VWS V14.00,2013-10-20 01:17:00,
2013-10-19 21:22:00,69.7,69.1,29.89,SSW,212,1.0,4.0,98,0.00,,---,0.30,VWS V14.00,2013-10-20 01:22:00,
2013-10-19 21:27:00,69.6,68.7,29.89,SSW,212,0.0,0.0,97,0.00,,---,0.30,VWS V14.00,2013-10-20 01:27:00,
2013-10-19 21:32:00,69.6,68.7,29.89,SSW,212,0.0,1.0,97,0.00,,---,0.30,VWS V14.00,2013-10-20 01:32:00,
2013-10-19 21:37:00,69.5,68.6,29.89,SSW,212,1.0,1.0,97,0.00,,---,0.30,VWS V14.00,2013-10-20 01:37:00,
2013-10-19 21:42:00,69.5,68.6,29.89,SSW,211,1.0,2.0,97,0.00,,---,0.30,VWS V14.00,2013-10-20 01:42:00,
2013-10-19 21:47:00,69.4,68.5,29.89,SSW,212,0.0,2.0,97,0.00,,---,0.30,VWS V14.00,2013-10-20 01:47:00,
2013-10-19 21:52:00,69.3,68.7,29.89,SSW,211,0.0,2.0,98,0.00,,---,0.30,VWS V14.00,2013-10-20 01:52:00,
2013-10-19 21:57:00,69.4,68.8,29.89,SSW,212,1.0,2.0,98,0.00,,---,0.30,VWS V14.00,2013-10-20 01:57:00,
2013-10-19 22:02:00,69.4,68.8,29.89,SSW,212,2.0,2.0,98,0.00,,---,0.30,VWS V14.00,2013-10-20 02:02:00,
2013-10-19 22:07:00,69.3,68.7,29.89,SSW,212,2.0,2.0,98,0.00,,---,0.30,VWS V14.00,2013-10-20 02:07:00,
2013-10-19 22:12:00,69.5,68.9,29.89,SSW,213,3.0,4.0,98,0.00,,---,0.30,VWS V14.00,2013-10-20 02:12:00,
2013-10-19 22:17:00,69.5,68.9,29.89,SW,214,1.0,4.0,98,0.00,,---,0.30,VWS V14.00,2013-10-20 02:17:00,
2013-10-19 22:22:00,69.5,68.9,29.89,SW,215,1.0,4.0,98,0.00,,---,0.30,VWS V14.00,2013-10-20 02:22:00,
2013-10-19 22:27:00,69.4,68.8,29.89,SW,214,2.0,4.0,98,0.00,,---,0.30,VWS V14.00,2013-10-20 02:27:00,
2013-10-19 22:32:00,69.5,68.9,29.90,SW,217,1.0,3.0,98,0.00,,---,0.30,VWS V14.00,2013-10-20 02:32:00,
2013-10-19 22:37:00,69.4,68.8,29.90,SW,216,0.0,3.0,98,0.00,,---,0.30,VWS V14.00,2013-10-20 02:37:00,
2013-10-19 22:42:00,69.4,68.8,29.90,SW,217,1.0,3.0,98,0.00,,---,0.30,VWS V14.00,2013-10-20 02:42:00,
2013-10-19 22:47:00,69.4,68.8,29.90,SW,233,2.0,3.0,98,0.00,,---,0.30,VWS V14.00,2013-10-20 02:47:00,
2013-10-19 22:52:00,69.6,69.0,29.90,West,270,4.0,6.0,98,0.00,,---,0.30,VWS V14.00,2013-10-20 02:52:00,
2013-10-19 22:57:00,69.6,69.0,29.90,WNW,288,2.0,6.0,98,0.00,,---,0.30,VWS V14.00,2013-10-20 02:57:00,
2013-10-19 23:02:00,69.4,68.8,29.90,West,274,3.0,5.0,98,0.00,,---,0.30,VWS V14.00,2013-10-20 03:02:00,
2013-10-19 23:07:00,69.2,68.6,29.90,WNW,284,2.0,5.0,98,0.00,,---,0.30,VWS V14.00,2013-10-20 03:07:00,
2013-10-19 23:12:00,69.3,68.7,29.90,WNW,291,3.0,5.0,98,0.00,,---,0.30,VWS V14.00,2013-10-20 03:12:00,
2013-10-19 23:17:00,69.4,68.8,29.90,WNW,293,1.0,5.0,98,0.00,,---,0.30,VWS V14.00,2013-10-20 03:17:00,
2013-10-19 23:22:00,69.4,68.8,29.90,WNW,293,1.0,5.0,98,0.00,,---,0.30,VWS V14.00,2013-10-20 03:22:00,
2013-10-19 23:27:00,69.4,68.8,29.90,West,267,3.0,7.0,98,0.00,,---,0.30,VWS V14.00,2013-10-20 03:27:00,
2013-10-19 23:32:00,69.0,68.4,29.90,West,274,3.0,7.0,98,0.00,,---,0.30,VWS V14.00,2013-10-20 03:32:00,
2013-10-19 23:37:00,68.6,67.7,29.90,WNW,292,3.0,10.0,97,0.00,,---,0.30,VWS V14.00,2013-10-20 03:37:00,
2013-10-19 23:42:00,68.3,67.1,29.91,West,272,6.0,10.0,96,0.00,,---,0.30,VWS V14.00,2013-10-20 03:42:00,
2013-10-19 23:47:00,68.1,66.6,29.91,WNW,301,8.0,10.0,95,0.00,,---,0.30,VWS V14.00,2013-10-20 03:47:00,
2013-10-19 23:52:00,68.0,66.2,29.91,WNW,297,8.0,10.0,94,0.00,,---,0.30,VWS V14.00,2013-10-20 03:52:00,
2013-10-19 23:57:00,67.9,66.1,29.91,WNW,290,3.0,10.0,94,0.00,,---,0.30,VWS V14.00,2013-10-20 03:57:00,